Wind_Speed
75 55 30 12 6 22 40 61 77 87 91 89 91 93 90 85 82 82 74 60 67 67 61 54 49 50 53 55 58 57 59 60 57 55 53 53 53 51 51 52 51 51 50 49
76 72 50 22 4 13 30 51 66 83 91 89 90 93 91 86 81 77 78 70 78 65 67 70 63 54 59 55 57 60 61 60 58 57 57 55 54 54 55 55 54 54 53 54
73 70 67 45 15 4 20 38 58 73 85 89 89 92 91 88 85 88 68 69 71 68 68 72 73 65 61 57 59 60 60 60 60 59 58 57 57 57 58 58 58 57 56 57
68 68 65 64 42 10 10 28 48 64 78 89 90 93 93 92 90 88 77 66 49 58 64 72 69 70 65 67 62 62 61 59 61 62 60 60 62 63 61 61 61 62 60 60
65 65 62 60 58 40 8 17 35 55 71 83 92 93 95 94 92 87 85 72 71 77 78 63 69 70 70 59 60 62 62 60 61 63 65 64 63 63 62 63 65 66 63 62
62 61 59 56 54 52 37 7 23 41 60 74 88 93 99 98 99 96 95 88 76 71 58 79 76 75 71 66 66 63 65 63 62 61 64 66 66 67 67 65 67 66 65 66
62 58 54 54 50 47 46 34 8 28 46 65 78 90 101 101 101 102 101 100 102 88 79 85 77 69 69 72 70 65 64 66 66 65 66 67 68 70 70 69 68 68 67 68
58 55 51 50 49 44 41 42 34 8 32 49 67 81 97 101 103 104 102 103 101 99 85 99 82 86 85 85 77 77 71 68 65 69 72 70 70 71 72 70 70 70 69 71
58 52 48 47 46 44 40 37 37 34 6 34 50 71 92 101 103 104 104 98 96 102 102 101 96 88 91 85 78 79 79 73 72 75 76 75 77 75 76 75 71 70 71 73
55 50 46 43 42 40 39 36 33 33 32 5 32 55 81 95 100 104 105 104 105 98 87 81 81 102 100 92 90 83 85 83 79 78 79 77 77 74 76 76 75 75 77 77
53 50 42 41 37 34 33 35 34 28 26 26 6 28 58 83 94 103 107 108 107 100 96 86 84 95 94 101 95 93 91 86 82 80 81 79 84 81 81 81 80 81 81 80
50 46 43 38 38 31 32 32 32 31 26 20 19 12 26 57 85 97 108 110 111 106 96 96 92 91 98 95 89 91 89 88 85 85 86 86 85 85 86 85 85 86 85 87
48 46 36 35 38 37 31 32 29 28 30 25 18 16 14 20 52 82 102 109 111 111 113 116 114 112 110 97 93 94 91 89 92 91 91 90 88 89 90 89 90 89 89 90
51 48 40 32 29 33 33 32 33 30 27 26 26 18 14 14 13 45 77 98 113 116 114 117 118 116 114 103 100 104 98 95 91 94 92 93 94 93 94 95 95 94 94 95
48 42 36 37 31 32 33 34 33 31 29 28 25 25 18 16 17 14 34 65 91 110 120 119 115 112 109 108 105 102 105 105 98 97 96 97 97 96 96 98 98 98 99 101
44 35 32 37 38 35 39 35 33 31 34 32 30 26 24 23 21 19 18 24 51 80 103 120 121 114 109 105 104 103 103 104 103 101 99 99 98 98 98 99 100 102 105 107
46 43 41 41 43 43 44 44 39 39 35 32 33 35 27 28 27 23 19 19 18 39 64 93 113 124 122 116 113 109 107 107 105 104 101 100 100 101 103 105 106 107 107 106
51 49 47 43 48 41 48 49 42 38 40 32 35 37 36 33 33 30 23 20 16 16 26 53 74 99 114 120 120 121 118 114 110 107 105 103 102 102 102 102 103 104 105 106
59 61 58 55 52 47 54 57 50 44 45 37 36 36 37 39 38 34 30 24 21 18 14 19 35 57 80 102 110 111 111 111 110 108 107 105 104 103 103 105 106 106 106 105
61 61 60 60 55 50 49 55 57 53 48 45 42 38 38 38 40 38 36 32 26 23 23 19 16 24 40 60 82 96 99 99 99 99 98 98 98 98 99 99 99 99 100 101
64 66 63 64 55 51 58 60 61 60 55 49 44 41 39 38 40 43 43 40 34 30 28 27 26 22 22 29 45 64 79 86 89 89 89 88 88 88 91 94 97 99 101 102
66 67 65 64 64 61 66 67 67 62 57 54 49 43 43 46 43 44 46 43 39 40 38 36 35 34 34 34 36 40 49 59 68 76 81 84 86 88 89 89 91 93 94 95
72 70 72 71 69 68 70 74 75 72 69 63 55 54 52 53 51 48 45 42 40 41 43 44 45 43 44 46 47 49 53 58 63 67 71 75 78 81 83 86 89 92 95 98
78 74 79 79 72 74 75 77 78 78 73 67 63 59 56 55 57 56 55 55 56 53 47 47 48 49 50 53 55 57 60 63 66 69 72 76 80 83 87 91 94 97 100 104
88 84 83 80 82 82 81 79 78 78 76 73 69 63 59 60 58 58 57 58 61 63 63 61 61 61 61 61 62 64 67 70 74 77 80 83 85 89 92 95 98 100 104 107
89 86 90 88 88 85 80 82 81 81 78 77 74 68 65 63 62 63 61 63 64 65 64 64 67 68 69 71 72 74 75 76 78 82 85 86 89 94 97 100 102 105 107 110
Wind_Direction
21 19 17 9 226 209 207 205 205 205 207 208 209 212 213 212 209 211 212 222 231 227 229 233 233 237 239 241 241 241 242 244 247 250 252 255 260 261 261 262 265 267 270 272
21 22 23 17 348 208 208 207 205 206 208 208 209 212 213 212 210 207 215 214 224 230 229 234 235 234 239 240 244 242 242 243 246 249 251 253 256 260 263 264 265 268 271 271
18 23 25 24 14 234 209 211 208 206 207 209 209 211 213 214 210 210 212 220 223 234 234 235 231 232 237 238 244 247 244 243 244 247 249 253 254 257 262 265 267 269 271 274
18 20 25 28 25 5 220 211 214 210 208 209 211 211 212 214 214 214 209 220 206 233 234 234 235 231 239 241 244 245 247 247 247 248 251 254 255 255 260 263 265 268 271 274
15 18 20 25 30 27 347 220 214 216 213 211 212 211 213 215 216 213 210 205 209 218 233 232 230 233 236 237 241 242 244 246 248 249 250 252 255 257 259 261 263 268 271 275
9 12 16 19 24 30 29 328 224 215 218 216 213 212 214 215 216 215 208 205 213 215 224 228 234 237 246 247 238 240 241 244 247 251 254 254 256 258 258 258 263 268 272 276
6 7 10 15 17 24 30 28 317 227 217 218 218 214 215 217 218 217 214 214 215 218 220 232 237 236 240 238 236 239 237 243 248 251 253 255 256 257 260 262 265 269 272 275
2 3 5 8 13 15 22 28 27 320 227 220 218 217 217 219 219 220 218 218 223 223 221 230 229 234 230 237 236 239 242 246 250 252 252 254 257 259 261 262 266 269 273 276
2 357 1 4 7 10 15 21 27 28 320 227 221 217 219 221 220 220 221 219 218 222 224 226 228 228 234 237 241 241 247 252 256 260 257 257 258 260 263 265 268 272 275 277
353 356 352 358 2 5 9 13 20 28 31 340 227 222 221 224 223 222 221 222 222 222 228 234 230 227 233 238 242 244 248 249 253 253 261 262 261 263 269 271 272 273 274 277
347 347 347 348 355 358 4 8 8 17 30 35 5 229 226 228 227 225 225 225 224 225 220 221 219 230 236 236 241 245 246 251 252 256 259 259 263 265 269 271 274 274 275 277
341 342 338 338 344 350 350 349 0 4 11 20 30 13 237 228 230 230 228 230 229 228 217 217 224 232 238 241 246 245 247 251 254 256 259 262 264 268 271 271 273 275 277 278
334 332 329 332 335 342 343 343 344 349 355 360 3 10 16 244 233 230 231 232 233 233 229 228 230 235 241 242 246 246 251 247 250 255 259 262 265 267 270 272 274 275 276 279
333 327 325 318 326 330 343 341 337 336 343 347 353 349 349 0 275 237 236 233 232 233 234 234 235 237 241 241 239 245 248 250 253 255 256 258 263 266 267 270 273 275 276 278
330 327 322 319 317 318 326 337 335 330 332 330 333 348 343 337 346 319 248 237 237 235 232 233 237 239 240 241 241 243 244 251 253 254 255 257 260 264 266 268 271 273 275 278
323 325 325 316 322 321 322 326 327 326 322 320 320 328 336 349 337 334 326 259 241 237 238 236 234 235 237 241 243 244 246 248 251 253 255 258 261 264 267 269 272 274 275 276
318 325 327 320 325 320 315 321 320 318 316 311 309 310 316 327 329 330 322 325 280 249 238 238 238 236 236 237 240 243 246 248 250 253 255 257 260 262 265 267 269 271 273 275
314 315 315 314 315 314 308 313 315 315 306 305 307 300 305 310 317 322 315 308 314 294 258 242 238 239 239 240 241 243 245 247 250 252 255 257 260 262 265 267 270 272 273 275
311 311 310 310 311 310 307 306 311 311 305 301 295 297 296 300 306 308 310 302 300 298 300 270 250 241 240 241 242 244 246 248 251 253 256 258 261 264 266 268 270 272 274 276
308 307 306 306 306 307 301 299 303 304 304 299 294 287 287 289 294 296 298 297 291 286 290 293 278 258 251 245 243 244 246 248 251 254 257 260 262 264 266 268 270 272 274 275
309 304 302 300 299 297 298 297 296 298 299 296 292 289 288 287 285 286 289 289 286 283 275 277 278 272 263 254 251 248 246 248 251 254 257 260 263 265 267 268 269 271 273 276
304 301 297 294 292 291 291 290 291 291 294 294 289 284 286 286 284 275 275 277 278 279 275 272 269 267 264 257 252 247 246 249 252 254 257 259 261 264 266 268 269 271 272 274
301 299 293 291 290 288 290 289 287 286 285 287 284 277 274 278 280 280 279 273 272 272 270 268 267 266 264 263 261 257 252 250 251 252 254 255 258 261 264 265 267 268 270 272
299 298 291 288 291 290 287 287 285 283 284 284 283 276 274 274 275 274 274 273 273 270 265 262 262 262 261 262 262 261 261 261 261 261 262 263 264 265 266 268 269 270 272 274
296 293 291 292 292 287 288 285 282 281 282 281 279 276 273 268 269 268 265 265 267 269 269 265 260 259 260 260 261 262 262 262 262 263 264 265 266 268 269 271 272 274 276 277
291 295 292 291 288 285 285 281 280 278 277 277 276 271 267 266 263 263 263 262 261 262 265 266 264 262 261 261 261 262 263 264 265 266 266 268 270 270 271 272 273 274 276 278
Height
10493 10481 10473 10470 10471 10476 10484 10495 10509 10524 10538 10555 10571 10584 10598 10614 10625 10637 10647 10653 10659 10668 10673 10677 10683 10689 10695 10699 10703 10707 10710 10715 10720 10724 10726 10726 10727 10728 10729 10730 10731 10730 10730 10730
10505 10491 10481 10477 10476 10479 10485 10494 10506 10519 10533 10547 10562 10575 10591 10606 10617 10626 10634 10643 10649 10657 10666 10669 10675 10681 10684 10688 10691 10696 10700 10704 10709 10712 10715 10716 10717 10717 10718 10719 10719 10719 10719 10718
10518 10506 10493 10485 10482 10482 10486 10494 10503 10514 10527 10541 10555 10569 10584 10597 10608 10617 10630 10638 10642 10647 10653 10658 10664 10667 10673 10678 10681 10686 10689 10694 10698 10701 10704 10706 10707 10707 10707 10707 10707 10707 10707 10707
10527 10517 10507 10497 10489 10487 10489 10494 10502 10511 10520 10532 10545 10557 10571 10584 10597 10610 10621 10632 10638 10635 10637 10643 10649 10655 10660 10665 10671 10676 10680 10683 10687 10689 10693 10695 10696 10696 10697 10696 10695 10695 10697 10695
10537 10527 10518 10509 10501 10493 10492 10494 10499 10507 10515 10525 10534 10548 10560 10574 10588 10601 10608 10616 10621 10624 10625 10629 10637 10641 10649 10656 10660 10665 10669 10673 10675 10677 10681 10683 10684 10685 10685 10685 10685 10684 10685 10684
10545 10535 10527 10519 10511 10504 10497 10495 10497 10501 10510 10518 10526 10540 10548 10560 10569 10580 10588 10594 10603 10611 10617 10620 10624 10630 10639 10643 10649 10653 10656 10659 10661 10665 10668 10669 10671 10671 10671 10672 10672 10673 10673 10671
10550 10543 10534 10527 10519 10512 10505 10499 10496 10498 10501 10510 10521 10532 10537 10544 10554 10565 10575 10582 10586 10597 10610 10607 10615 10622 10626 10628 10636 10639 10643 10647 10649 10651 10653 10655 10656 10658 10659 10660 10661 10661 10660 10657
10555 10548 10540 10532 10525 10518 10511 10504 10498 10495 10497 10502 10512 10526 10524 10531 10540 10550 10562 10571 10576 10585 10597 10595 10606 10609 10612 10615 10622 10625 10632 10635 10638 10639 10640 10641 10642 10643 10645 10646 10647 10646 10645 10642
10559 10550 10543 10536 10529 10522 10516 10509 10503 10497 10493 10496 10503 10509 10513 10513 10526 10539 10549 10561 10568 10574 10577 10583 10591 10598 10598 10604 10608 10615 10619 10623 10625 10626 10628 10629 10630 10631 10629 10632 10633 10632 10629 10626
10556 10551 10543 10538 10531 10525 10519 10513 10507 10501 10496 10493 10496 10501 10501 10505 10517 10526 10536 10545 10552 10556 10561 10566 10574 10582 10585 10590 10594 10603 10606 10611 10613 10616 10614 10615 10615 10617 10616 10617 10617 10616 10613 10611
10553 10547 10544 10537 10532 10525 10520 10515 10509 10504 10500 10496 10493 10494 10497 10500 10507 10517 10521 10528 10535 10544 10551 10556 10561 10565 10570 10578 10584 10588 10592 10595 10600 10601 10600 10601 10601 10604 10603 10601 10600 10597 10596 10595
10551 10545 10537 10535 10530 10526 10519 10514 10510 10505 10501 10497 10494 10491 10491 10492 10500 10507 10509 10512 10520 10530 10539 10543 10547 10553 10558 10563 10570 10574 10579 10582 10585 10586 10585 10587 10587 10587 10585 10584 10583 10581 10578 10576
10547 10542 10537 10530 10523 10520 10518 10512 10508 10504 10499 10495 10492 10489 10485 10484 10486 10484 10494 10502 10507 10515 10523 10529 10535 10540 10544 10550 10554 10556 10563 10567 10569 10570 10570 10569 10570 10569 10569 10566 10565 10563 10560 10557
10540 10534 10528 10526 10524 10517 10513 10509 10504 10499 10496 10492 10488 10484 10480 10477 10475 10474 10478 10479 10486 10496 10503 10509 10516 10521 10525 10533 10539 10542 10545 10549 10553 10555 10555 10555 10554 10553 10551 10549 10547 10545 10542 10538
10533 10527 10523 10514 10516 10511 10508 10504 10499 10494 10492 10487 10483 10479 10475 10470 10466 10463 10461 10462 10467 10471 10479 10486 10494 10500 10506 10512 10518 10524 10529 10531 10534 10537 10538 10538 10537 10536 10534 10533 10530 10526 10523 10519
10525 10524 10519 10508 10506 10505 10499 10497 10494 10489 10484 10480 10476 10472 10468 10464 10460 10455 10451 10448 10448 10454 10460 10468 10476 10480 10485 10492 10498 10504 10509 10513 10515 10518 10519 10519 10519 10518 10516 10514 10511 10507 10503 10498
10514 10513 10512 10506 10500 10493 10487 10484 10483 10480 10477 10473 10469 10465 10461 10457 10452 10449 10445 10441 10437 10435 10437 10445 10452 10461 10467 10472 10479 10484 10489 10493 10497 10499 10500 10501 10500 10499 10498 10496 10492 10487 10483 10478
10503 10500 10498 10498 10491 10489 10475 10475 10472 10471 10464 10465 10460 10455 10452 10449 10445 10440 10437 10434 10432 10427 10425 10425 10429 10438 10446 10453 10459 10465 10469 10473 10476 10479 10480 10481 10481 10480 10478 10475 10471 10465 10459 10454
10485 10483 10482 10479 10480 10479 10466 10456 10460 10459 10452 10454 10450 10446 10443 10439 10436 10433 10429 10427 10424 10421 10418 10415 10415 10418 10423 10431 10438 10445 10450 10455 10458 10461 10462 10463 10462 10460 10457 10452 10446 10442 10437 10432
10474 10468 10465 10462 10464 10462 10455 10447 10444 10442 10442 10438 10437 10436 10433 10431 10427 10424 10421 10419 10416 10414 10412 10410 10408 10408 10410 10413 10420 10427 10433 10438 10441 10443 10444 10442 10440 10438 10434 10429 10424 10420 10414 10408
10461 10455 10452 10445 10446 10447 10433 10432 10428 10425 10427 10424 10423 10422 10421 10418 10417 10413 10411 10409 10407 10406 10404 10403 10403 10402 10402 10403 10407 10411 10415 10419 10421 10422 10423 10422 10421 10417 10412 10407 10401 10395 10390 10386
10443 10436 10431 10427 10428 10429 10419 10413 10411 10410 10409 10408 10408 10408 10407 10404 10402 10399 10397 10397 10396 10395 10394 10393 10393 10394 10394 10395 10395 10396 10398 10400 10401 10401 10400 10399 10396 10392 10386 10382 10377 10373 10367 10361
10427 10419 10410 10408 10408 10404 10399 10393 10390 10390 10390 10389 10390 10389 10389 10388 10386 10384 10383 10382 10381 10382 10381 10381 10380 10381 10381 10380 10381 10382 10382 10382 10381 10380 10378 10375 10372 10368 10364 10359 10354 10348 10342 10336
10406 10396 10387 10379 10388 10380 10376 10370 10365 10362 10367 10368 10369 10368 10368 10370 10366 10365 10364 10364 10364 10364 10364 10363 10364 10364 10363 10363 10363 10363 10362 10361 10359 10357 10355 10352 10347 10345 10340 10336 10331 10326 10320 10313
10376 10365 10360 10364 10361 10353 10351 10346 10340 10337 10337 10339 10339 10344 10345 10345 10345 10343 10343 10342 10342 10342 10342 10344 10344 10344 10343 10342 10342 10341 10339 10337 10336 10333 10329 10326 10324 10319 10314 10309 10305 10301 10295 10288
10340 10340 10330 10331 10329 10322 10327 10315 10311 10310 10309 10308 10311 10315 10317 10318 10321 10318 10320 10321 10320 10319 10319 10319 10319 10319 10319 10319 10318 10316 10314 10313 10311 10308 10305 10305 10300 10293 10288 10284 10280 10275 10269 10261